Flag for Tuvalu Weather past 2 weeks in Funafuti, Tuvalu

Now
82 °F

Scattered showers. Overcast.


Feels Like: 92 °F
Forecast: 76 / 89 °F
Wind: 6 mph from Southeast

Location: Funafuti

Current Time: Oct 23, 2014 at 6:25:28 PM

Latest Report: Oct 23, 2014 at 6:00 PM


Visibility: N/A

Pressure: 29.77 "Hg

Humidity: 89%

Dew point: 79 °F

Location of FunafutiLocation

Historic Weather in Funafuti — Graph

°F

Funafuti temperature yesterday

Maximum temperature yesterday: 90 °F (at 2:00 PM)
Minimum temperature yesterday: 82 °F (at 12:00 AM)
Average temperature yesterday: 84 °F

Past Weeks' High & Low Weather Summary

 TemperatureHumidityPressure
High90 °F (Oct 9, 11:00 AM)100% (Oct 19, 6:00 PM)29.89 "Hg (Oct 19, 6:00 PM)
Low77 °F (Oct 19, 6:00 PM)59% (Oct 23, 1:00 PM)29.74 "Hg (Oct 16, 4:00 PM)
Average84 °F80%29.82 "Hg
* Reported Oct 8 5:00 PM — Oct 23 5:00 PM, Funafuti, Weather by CustomWeather, © 2014

Note: Actual official high and low records may vary slightly from our data, if they occured in-between our weather recording intervals... More about our weather records

Advertising

Funafuti weather history for previous 24 hours

 ConditionsComfort  
Time TempWeatherWind HumidityBarometerVisibility
5:00 PM
Oct 23
82 °FScattered showers. Cloudy.3 mph89%29.77 "HgN/A
4:00 PM84 °FScattered showers. Broken clouds.No wind79%29.77 "HgN/A
1:00 PM90 °FScattered clouds.5 mph59%29.80 "HgN/A
12:00 PM88 °FBroken clouds.3 mph70%29.80 "HgN/A
11:00 AM88 °FPartly sunny.3 mph70%29.86 "HgN/A
10:00 AM86 °FPartly sunny.3 mph70%29.86 "HgN/A
9:00 AM86 °FBroken clouds.1 mph70%29.86 "HgN/A
8:00 AM84 °FScattered showers. Broken clouds.5 mph74%29.86 "HgN/A
7:00 AM84 °FScattered showers. Broken clouds.5 mph74%29.83 "HgN/A
6:00 AM82 °FBroken clouds.3 mph79%29.83 "HgN/A
5:00 AM82 °FPassing clouds.1 mph79%29.80 "HgN/A
4:00 AM81 °FPassing clouds.3 mph79%29.80 "HgN/A
3:00 AM82 °FPassing clouds.5 mph79%29.80 "HgN/A
2:00 AM82 °FPassing clouds.3 mph74%29.80 "HgN/A
1:00 AM82 °FPassing clouds.2 mph79%29.83 "HgN/A
12:00 AM81 °FPassing clouds.No wind84%29.83 "HgN/A
11:00 PM
Oct 22
82 °FPassing clouds.No wind79%29.86 "HgN/A
10:00 PM82 °FPassing clouds.No wind74%29.86 "HgN/A
9:00 PM82 °FPassing clouds.2 mph74%29.83 "HgN/A
8:00 PM84 °FPassing clouds.2 mph74%29.83 "HgN/A
7:00 PM84 °FPassing clouds.1 mph70%29.80 "HgN/A
6:00 PM86 °FPassing clouds.No wind70%29.77 "HgN/A
Weather by CustomWeather, © 2014

See weather overviewHow to use our weather pages